This demonstration page uses our WeatherBlox Daily Observations layout. Learn more.

38.89511, -77.03637

Hourly Observations for January 28, 2015

Temp ( °F °C ) Dew Point ( °F °C ) Humidity (%) Winds ( mph kmh ) Pressure ( in mb ) Visibility ( mi km ) Precip ( " mm )
12:52 am 00:52 Partly Cloudy 29 -1.7 14 -10 54 54 NNW 17 28 30.01 1016 10 16.0934 0 0
1:52 am 01:52 Mostly Cloudy 28 -2.2 12 -11.1 51 51 NW 17 28 30.04 1017 10 16.0934 0 0
2:52 am 02:52 Partly Cloudy 27 -2.8 11 -11.7 51 51 NNW 20 31 30.06 1018 10 16.0934 0 0
3:52 am 03:52 Mostly Clear 26 -3.3 10 -12.2 51 51 NW 12 19 30.09 1019 10 16.0934 0 0
4:52 am 04:52 Clear 25 -3.9 9 -12.8 50 50 NNW 14 22 30.11 1020 10 16.0934 0 0
5:52 am 05:52 Clear 25 -3.9 9 -12.8 50 50 NNW 15 24 30.13 1020 10 16.0934 0 0
6:52 am 06:52 Mostly Clear 25 -3.9 8 -13.3 48 48 NNW 16 26 30.16 1021 10 16.0934 0 0
7:52 am 07:52 Sunny 25 -3.9 7 -13.9 46 46 NW 13 20 30.19 1023 10 16.0934 0 0
8:52 am 08:52 Sunny 27 -2.8 7 -13.9 43 43 NNW 14 22 30.22 1023 10 16.0934 0 0
9:52 am 09:52 Sunny 29 -1.7 7 -13.9 39 39 NW 14 22 30.24 1024 10 16.0934 0 0
10:52 am 10:52 Sunny 32 0 7 -13.9 35 35 NNW 17 28 30.25 1025 10 16.0934 0 0
11:52 am 11:52 Sunny 33 0.6 7 -13.9 33 33 NNW 17 28 30.25 1024 10 16.0934 0 0
12:52 pm 12:52 Sunny 35 1.7 7 -13.9 31 31 NNW 15 24 30.24 1024 10 16.0934 0 0
1:52 pm 13:52 Sunny 37 2.8 7 -13.9 28 28 NNW 18 30 30.23 1024 10 16.0934 0 0
2:52 pm 14:52 Sunny 38 3.3 7 -13.9 27 27 WNW 14 22 30.24 1024 10 16.0934 0 0
3:52 pm 15:52 Sunny 38 3.3 7 -13.9 27 27 NNW 10 17 30.25 1024 10 16.0934 0 0
4:52 pm 16:52 Mostly Sunny 37 2.8 6 -14.4 27 27 NW 14 22 30.27 1025 10 16.0934 0 0
5:52 pm 17:52 Mostly Clear 35 1.7 6 -14.4 29 29 NNW 13 20 30.29 1026 10 16.0934 0 0
6:52 pm 18:52 Clear 34 1.1 5 -15 29 29 NNW 13 20 30.3 1026 10 16.0934 0 0
7:52 pm 19:52 Clear 33 0.6 6 -14.4 32 32 NW 10 17 30.32 1027 10 16.0934 0 0
8:52 pm 20:52 Clear 33 0.6 6 -14.4 32 32 NW 9 15 30.33 1027 10 16.0934 0 0
9:52 pm 21:52 Clear 32 0 6 -14.4 33 33 NNW 9 15 30.34 1027 10 16.0934 0 0
10:52 pm 22:52 Clear 31 -0.6 6 -14.4 35 35 NNW 8 13 30.35 1028 10 16.0934 0 0
11:52 pm 23:52 Clear 30 -1.1 6 -14.4 36 36 NW 6 9 30.35 1028 10 16.0934 0 0

Powered by AerisWeather